When you browse on this site, cookies collect data to enhance your experience and personalize the content and advertising you see.
Visit our Privacy Policy to learn more. By continuing to use the site, you agree to this use of cookies and data.
  • In Schweiz
  • Länderverzeichnis
  • Für 7 Tage
  • Wassertemperatur
  • Wetterkarte
  • Widgets
  • user-avatar
    Anmelden

    Stündliche Wetter Barinas

    Heute, 22 Oktober, Dienstag

    Zeit Temperatur Niederschläge Wind Luftdruck Luftfeuchtigkeit
    00:00 +25°C° 0.1 mm 1 m/S 742 mmHg 92%
    01:00 +25°C° 0 mm 1 m/S 742 mmHg 91%
    02:00 +24°C° 0 mm 1 m/S 742 mmHg 91%
    03:00 +24°C° 0 mm 1 m/S 742 mmHg 90%
    04:00 +24°C° 0 mm 1 m/S 741 mmHg 90%
    05:00 +25°C° 0 mm 1 m/S 742 mmHg 88%
    06:00 +25°C° 0 mm 1 m/S 743 mmHg 86%
    07:00 +24°C° 0 mm 0 m/S 743 mmHg 83%
    08:00 +28°C° 0 mm 1 m/S 743 mmHg 77%
    09:00 +30°C° 0 mm 1 m/S 743 mmHg 70%
    10:00 +32°C° 0 mm 2 m/S 743 mmHg 63%
    11:00 +32°C° 0.6 mm 2 m/S 743 mmHg 66%
    12:00 +32°C° 0.6 mm 2 m/S 742 mmHg 68%
    13:00 +33°C° 0.6 mm 3 m/S 741 mmHg 71%
    14:00 +31°C° 0.8 mm 2 m/S 741 mmHg 75%
    15:00 +31°C° 0.8 mm 2 m/S 740 mmHg 78%
    16:00 +30°C° 0.8 mm 2 m/S 740 mmHg 81%
    17:00 +29°C° 0.4 mm 2 m/S 740 mmHg 85%
    18:00 +27°C° 0.4 mm 1 m/S 741 mmHg 88%
    19:00 +26°C° 0.4 mm 1 m/S 741 mmHg 91%
    20:00 +26°C° 0.1 mm 1 m/S 741 mmHg 91%
    21:00 +26°C° 0.1 mm 1 m/S 742 mmHg 92%
    22:00 +25°C° 0.1 mm 1 m/S 742 mmHg 92%
    23:00 +25°C° 0 mm 1 m/S 742 mmHg 92%

    Morgen, 23 Oktober, Mittwoch

    Zeit Temperatur Niederschläge Wind Luftdruck Luftfeuchtigkeit
    00:00 +25°C° 0 mm 1 m/S 741 mmHg 91%
    01:00 +24°C° 0 mm 1 m/S 741 mmHg 91%
    02:00 +24°C° 0 mm 1 m/S 741 mmHg 91%
    03:00 +24°C° 0 mm 1 m/S 741 mmHg 90%
    04:00 +24°C° 0 mm 1 m/S 741 mmHg 90%
    05:00 +24°C° 0 mm 1 m/S 742 mmHg 88%
    06:00 +25°C° 0 mm 1 m/S 742 mmHg 85%
    07:00 +24°C° 0 mm 0 m/S 743 mmHg 83%
    08:00 +28°C° 0.2 mm 1 m/S 743 mmHg 77%
    09:00 +30°C° 0.2 mm 1 m/S 743 mmHg 70%
    10:00 +32°C° 0.2 mm 1 m/S 743 mmHg 64%
    11:00 +32°C° 0.2 mm 1 m/S 742 mmHg 63%
    12:00 +32°C° 0.2 mm 2 m/S 741 mmHg 61%
    13:00 +32°C° 0.2 mm 2 m/S 741 mmHg 60%
    14:00 +32°C° 0.2 mm 2 m/S 740 mmHg 64%
    15:00 +31°C° 0.2 mm 1 m/S 740 mmHg 69%
    16:00 +31°C° 0.2 mm 1 m/S 740 mmHg 73%
    17:00 +29°C° 0 mm 1 m/S 740 mmHg 78%
    18:00 +28°C° 0 mm 1 m/S 741 mmHg 82%
    19:00 +26°C° 0 mm 1 m/S 741 mmHg 87%
    20:00 +26°C° 0 mm 1 m/S 742 mmHg 88%
    21:00 +25°C° 0 mm 1 m/S 742 mmHg 89%
    22:00 +25°C° 0 mm 1 m/S 742 mmHg 90%
    23:00 +25°C° 0 mm 1 m/S 742 mmHg 89%

    übermorgen, 24 Oktober, Donnerstag

    Zeit Temperatur Niederschläge Wind Luftdruck Luftfeuchtigkeit
    00:00 +25°C° 0 mm 1 m/S 741 mmHg 87%
    01:00 +24°C° 0 mm 1 m/S 741 mmHg 86%
    02:00 +24°C° 0 mm 1 m/S 741 mmHg 84%
    03:00 +24°C° 0 mm 1 m/S 741 mmHg 83%
    04:00 +24°C° 0 mm 1 m/S 741 mmHg 81%
    05:00 +25°C° 0 mm 1 m/S 742 mmHg 80%
    06:00 +25°C° 0 mm 1 m/S 742 mmHg 78%
    07:00 +26°C° 0 mm 1 m/S 743 mmHg 77%
    08:00 +28°C° 0.4 mm 1 m/S 743 mmHg 73%
    09:00 +29°C° 0.4 mm 2 m/S 743 mmHg 70%
    10:00 +31°C° 0.4 mm 2 m/S 744 mmHg 67%
    11:00 +31°C° 0.1 mm 2 m/S 743 mmHg 64%
    12:00 +32°C° 0.1 mm 2 m/S 742 mmHg 62%
    13:00 +32°C° 0.1 mm 2 m/S 741 mmHg 60%
    14:00 +32°C° 0.1 mm 2 m/S 741 mmHg 63%
    15:00 +32°C° 0.1 mm 2 m/S 740 mmHg 67%
    16:00 +31°C° 0.1 mm 2 m/S 740 mmHg 70%
    17:00 +30°C° 0.3 mm 1 m/S 740 mmHg 75%
    18:00 +28°C° 0.3 mm 1 m/S 740 mmHg 81%
    19:00 +27°C° 0.3 mm 1 m/S 741 mmHg 87%
    20:00 +26°C° 0.1 mm 1 m/S 741 mmHg 88%
    21:00 +26°C° 0.1 mm 1 m/S 741 mmHg 89%
    22:00 +25°C° 0.1 mm 1 m/S 742 mmHg 91%
    23:00 +25°C° 0.5 mm 1 m/S 742 mmHg 92%

    25 Oktober, Freitag

    Zeit Temperatur Niederschläge Wind Luftdruck Luftfeuchtigkeit
    00:00 +25°C° 0.5 mm 1 m/S 742 mmHg 92%
    01:00 +24°C° 0.5 mm 2 m/S 741 mmHg 93%
    02:00 +24°C° 0.4 mm 2 m/S 742 mmHg 93%
    03:00 +24°C° 0.4 mm 2 m/S 742 mmHg 92%
    04:00 +24°C° 0.4 mm 1 m/S 742 mmHg 92%
    05:00 +24°C° 0.2 mm 1 m/S 742 mmHg 91%
    06:00 +25°C° 0.2 mm 1 m/S 743 mmHg 89%
    07:00 +26°C° 0.2 mm 1 m/S 743 mmHg 88%
    08:00 +27°C° 0 mm 1 m/S 743 mmHg 82%
    09:00 +29°C° 0 mm 2 m/S 744 mmHg 76%
    10:00 +30°C° 0 mm 2 m/S 744 mmHg 70%
    11:00 +30°C° 0.1 mm 2 m/S 743 mmHg 68%
    12:00 +31°C° 0.1 mm 2 m/S 742 mmHg 66%
    13:00 +33°C° 0.1 mm 3 m/S 741 mmHg 64%
    14:00 +31°C° 0.1 mm 2 m/S 741 mmHg 66%
    15:00 +31°C° 0.1 mm 2 m/S 740 mmHg 68%
    16:00 +31°C° 0.1 mm 2 m/S 740 mmHg 71%
    17:00 +29°C° 0.5 mm 1 m/S 741 mmHg 76%
    18:00 +28°C° 0.5 mm 1 m/S 741 mmHg 81%
    19:00 +26°C° 0.5 mm 1 m/S 742 mmHg 87%
    20:00 +26°C° 0.3 mm 1 m/S 742 mmHg 88%
    21:00 +25°C° 0.3 mm 1 m/S 742 mmHg 90%
    22:00 +25°C° 0.3 mm 1 m/S 742 mmHg 91%
    23:00 +25°C° 0 mm 1 m/S 742 mmHg 90%

    26 Oktober, Samstag

    Zeit Temperatur Niederschläge Wind Luftdruck Luftfeuchtigkeit
    00:00 +25°C° 0 mm 1 m/S 742 mmHg 89%
    01:00 +24°C° 0 mm 1 m/S 741 mmHg 89%
    02:00 +24°C° 0 mm 1 m/S 741 mmHg 86%
    03:00 +25°C° 0 mm 1 m/S 741 mmHg 83%
    04:00 +25°C° 0 mm 1 m/S 741 mmHg 80%
    05:00 +25°C° 0 mm 1 m/S 742 mmHg 78%
    06:00 +26°C° 0 mm 1 m/S 743 mmHg 77%
    07:00 +25°C° 0 mm 0 m/S 743 mmHg 75%
    08:00 +28°C° 0 mm 1 m/S 743 mmHg 70%
    09:00 +30°C° 0 mm 1 m/S 743 mmHg 66%
    10:00 +32°C° 0 mm 2 m/S 744 mmHg 61%
    11:00 +32°C° 0.2 mm 2 m/S 743 mmHg 63%
    12:00 +32°C° 0.2 mm 2 m/S 742 mmHg 64%
    13:00 +32°C° 0.2 mm 2 m/S 741 mmHg 66%
    14:00 +31°C° 0.5 mm 2 m/S 741 mmHg 70%
    15:00 +31°C° 0.5 mm 2 m/S 740 mmHg 74%
    16:00 +30°C° 0.5 mm 2 m/S 740 mmHg 78%
    17:00 +29°C° 0.4 mm 2 m/S 741 mmHg 81%
    18:00 +28°C° 0.4 mm 1 m/S 741 mmHg 84%
    19:00 +26°C° 0.4 mm 1 m/S 741 mmHg 88%
    20:00 +26°C° 0.1 mm 1 m/S 742 mmHg 88%
    21:00 +26°C° 0.1 mm 1 m/S 742 mmHg 87%
    22:00 +26°C° 0.1 mm 1 m/S 742 mmHg 87%
    23:00 +26°C° 0.1 mm 1 m/S 742 mmHg 87%

    27 Oktober, Sonntag

    Zeit Temperatur Niederschläge Wind Luftdruck Luftfeuchtigkeit
    00:00 +26°C° 0.1 mm 1 m/S 742 mmHg 87%
    01:00 +25°C° 0.1 mm 1 m/S 742 mmHg 87%
    02:00 +25°C° 0 mm 1 m/S 741 mmHg 86%
    03:00 +25°C° 0 mm 1 m/S 741 mmHg 86%
    04:00 +25°C° 0 mm 1 m/S 741 mmHg 85%
    05:00 +26°C° 0 mm 1 m/S 742 mmHg 83%
    06:00 +26°C° 0 mm 1 m/S 742 mmHg 81%
    07:00 +27°C° 0 mm 1 m/S 743 mmHg 79%
    08:00 +29°C° 0.1 mm 1 m/S 743 mmHg 74%
    09:00 +30°C° 0.1 mm 2 m/S 743 mmHg 69%
    10:00 +33°C° 0.1 mm 3 m/S 743 mmHg 63%
    11:00 +33°C° 1.8 mm 3 m/S 742 mmHg 68%
    12:00 +31°C° 1.8 mm 3 m/S 741 mmHg 72%
    13:00 +31°C° 1.8 mm 3 m/S 740 mmHg 76%
    14:00 +31°C° 1.9 mm 2 m/S 740 mmHg 78%
    15:00 +30°C° 1.9 mm 2 m/S 740 mmHg 81%
    16:00 +30°C° 1.9 mm 1 m/S 740 mmHg 83%
    17:00 +29°C° 0.6 mm 1 m/S 740 mmHg 85%
    18:00 +27°C° 0.6 mm 1 m/S 741 mmHg 87%
    19:00 +26°C° 0.6 mm 1 m/S 741 mmHg 90%
    20:00 +26°C° 0.1 mm 1 m/S 741 mmHg 90%
    21:00 +26°C° 0.1 mm 1 m/S 742 mmHg 90%
    22:00 +25°C° 0.1 mm 1 m/S 742 mmHg 90%
    23:00 +25°C° 0 mm 1 m/S 742 mmHg 90%

    28 Oktober, Montag

    Zeit Temperatur Niederschläge Wind Luftdruck Luftfeuchtigkeit
    00:00 +25°C° 0 mm 1 m/S 742 mmHg 89%
    01:00 +24°C° 0 mm 1 m/S 742 mmHg 89%
    02:00 +24°C° 0 mm 1 m/S 741 mmHg 88%
    03:00 +24°C° 0 mm 1 m/S 741 mmHg 87%
    04:00 +24°C° 0 mm 1 m/S 741 mmHg 86%
    05:00 +25°C° 0 mm 1 m/S 742 mmHg 84%
    06:00 +26°C° 0 mm 1 m/S 742 mmHg 82%
    07:00 +27°C° 0 mm 1 m/S 743 mmHg 79%
    08:00 +28°C° 0.2 mm 1 m/S 743 mmHg 74%
    09:00 +30°C° 0.2 mm 1 m/S 743 mmHg 68%
    10:00 +32°C° 0.2 mm 2 m/S 743 mmHg 63%
    11:00 +32°C° 0.2 mm 2 m/S 742 mmHg 63%
    12:00 +32°C° 0.2 mm 2 m/S 742 mmHg 64%
    13:00 +32°C° 0.2 mm 2 m/S 741 mmHg 64%
    14:00 +32°C° 0.4 mm 2 m/S 740 mmHg 69%
    15:00 +31°C° 0.4 mm 2 m/S 740 mmHg 74%
    16:00 +30°C° 0.4 mm 2 m/S 740 mmHg 79%
    17:00 +29°C° 0.2 mm 2 m/S 740 mmHg 82%
    18:00 +28°C° 0.2 mm 1 m/S 740 mmHg 85%
    19:00 +26°C° 0.2 mm 1 m/S 741 mmHg 88%
    20:00 +26°C° 0.1 mm 1 m/S 741 mmHg 88%
    21:00 +26°C° 0.1 mm 1 m/S 741 mmHg 88%
    22:00 +26°C° 0.1 mm 1 m/S 742 mmHg 89%
    23:00 +26°C° 0.2 mm 1 m/S 741 mmHg 87%
    Mehr zeigen